Regional Weather Roundup
Issued by NWS

Home | Current Version | Previous Version | Text Only | Print | Product List | Glossary On
Versions: 1 2 3 4 5 6 7 8 9 10 11 12 13 14 15 16 17 18 19 20 21 22 23 24 25 26 27 28 29 30 31 32 33 34 35 36 37 38 39 40 41 42 43 44 45 46 47 48 49 50
000
ASUS43 KMKX 250459
RWRWI

WISCONSIN REGIONAL WEATHER ROUNDUP
NATIONAL WEATHER SERVICE MILWAUKEE/SULLIVAN WI
1200 AM CDT WED APR 25 2018

NOTE: "FAIR" INDICATES FEW OR NO CLOUDS BELOW 12,000 FEET WITH NO
SIGNIFICANT WEATHER AND/OR OBSTRUCTIONS TO VISIBILITY.

WIZ001-002-006>008-014>016-023>028-250600-
NORTHWEST WISCONSIN

CITY           SKY/WX    TMP DP  RH WIND       PRES   REMARKS
SUPERIOR ARPT  FAIR      37  24  58 N5        30.29S WCI  33
ASHLAND        FAIR      35  26  69 N8        30.27S WCI  29
HAYWARD        FAIR      38  26  62 N7        30.24R WCI  33
SIREN          FAIR      42  25  50 N7        30.26R
CUMBERLAND     FAIR      41  27  56 N8        30.22R
RICE LAKE      FAIR      41  28  60 NW7       30.23R
CHETEK         FAIR      34  32  94 W6        30.21S WCI  29
LADYSMITH      FAIR      33  31  91 N10       30.22R WCI  25
EAU CLAIRE     NOT AVBL
MENOMONIE      FAIR      41  34  77 N3        30.21R
NEW RICHMOND   FAIR      41  28  58 N7        30.23R
OSCEOLA        FAIR      44  27  51 N3        30.26R
$$

WIZ003>005-009-010-017-018-250600-
NORTH CENTRAL WISCONSIN

CITY           SKY/WX    TMP DP  RH WIND       PRES   REMARKS
MANITOWISH WTR FAIR      33  33 100 N5        30.18S WCI  28
ARBOR VITAE    FOG       32  31  96 N3        30.18S VSB 3/4
WOODRUFF       FOG       32  31  96 N3        30.18S VSB 3/4
RHINELANDER    FAIR      34  34 100 CALM      30.17F FOG
EAGLE RIVER    FOG       30  30 100 N3        30.16F VSB 1
LAND O LAKES   FAIR      36  34  95 N7        30.19S WCI  30
PHILLIPS       FAIR      35  32  87 N5        30.19R WCI  31
TOMAHAWK       FOG       29  28  96 CALM      30.18F VSB 3/4
MEDFORD        FAIR      34  33  94 NE3       30.17S
MERRILL        FAIR      34  34 100 CALM      30.18S FOG
$$

WIZ029-030-035-036-043>047-250600-
CENTRAL WISCONSIN

CITY           SKY/WX    TMP DP  RH WIND       PRES   REMARKS
WAUSAU         FAIR      40  38  93 N7        30.14S
MOSINEE        CLOUDY    41  39  93 N8        30.16S
MARSHFIELD     FAIR      41  36  82 N9        30.15S
STEVENS POINT  CLOUDY    41  39  95 N7        30.16S
WAUPACA        CLOUDY    48  33  56 N6        30.15S
WAUTOMA        CLOUDY    48  32  53 N8        30.15R
WISC RAPIDS    MOCLDY    45  35  68 NE7       30.16S
CAMP DOUGLAS   NOT AVBL
$$

WIZ011>013-019>022-031-037>040-048>050-250600-
NORTHEAST WISCONSIN

CITY           SKY/WX    TMP DP  RH WIND       PRES   REMARKS
ANTIGO         FAIR      35  35 100 N7        30.16S WCI  30
SHAWANO        CLOUDY    44  37  76 NE7       30.15S
OCONTO         CLOUDY    45  35  68 N8G18     30.15R
STURGEON BAY   LGT RAIN  41  35  79 N21G26    30.15R
GREEN BAY      CLOUDY    43  32  65 N8        30.14S
MANITOWOC      MOCLDY    44  31  60 N9        30.13S
APPLETON       CLOUDY    45  27  49 NE10      30.12S
CLINTONVILLE   CLOUDY    46  34  63 N7        30.14F
OSHKOSH        CLOUDY    47  33  58 NE12      30.13R
$$

WIZ032>034-041-042-053>061-250600-
SOUTHWEST WISCONSIN

CITY           SKY/WX    TMP DP  RH WIND       PRES   REMARKS
LA CROSSE      MOCLDY    51  35  54 N8        30.18S
SPARTA         CLOUDY    48  38  66 N5        30.18S
VIROQUA        FAIR      46  37  71 N9        30.15S
BOSCOBEL       FAIR      54  34  46 N10G18    30.14R
PRAIRIE DU CHI CLOUDY    55  32  40 N8G17     30.13R
PLATTEVILLE    MOCLDY    56  37  48 N18       30.07R
$$

WIZ056-057-062-063-064-067-068-250600-
SOUTH CENTRAL WISCONSIN

CITY           SKY/WX    TMP DP  RH WIND       PRES   REMARKS
REEDSBURG      CLOUDY    51  32  49 N17       30.12S
BARABOO/DELLS  CLOUDY    52  31  45 NE8       30.12R
LONE ROCK      NOT AVBL
MINERAL POINT  MOCLDY    55  34  44 N17       30.08R
MADISON        CLOUDY    51  33  50 NE14      30.09R
MIDDLETON      CLOUDY    54  37  53 NE18G28   30.10R
WATERTOWN      CLOUDY    48  32  53 NE10G17   30.09R
MONROE         CLOUDY    55  32  41 N7        30.05R
JANESVILLE     CLOUDY    52  46  82 NE9       30.06R
$$

WIZ051-052-058>065-066-070>072-250600-
SOUTHEAST WISCONSIN

CITY           SKY/WX    TMP DP  RH WIND       PRES   REMARKS
MILWAUKEE      FAIR      43  33  68 N23G30    30.07S
WAUKESHA       FAIR      45  28  53 NE14G23   30.09R
MILWAUKEE/TIMM FAIR      46  27  46 NE20G31   30.09R
RACINE         FAIR      42  34  73 N20G33    30.08R
BURLINGTON     FAIR      46  32  57 NE15G22   30.07R
KENOSHA        MOCLDY    45  33  63 N15G26    30.07R
FOND DU LAC    CLOUDY    47  32  56 NE13      30.13R
SHEBOYGAN      MOCLDY    45  32  60 N14G22    30.11R
WEST BEND      MOCLDY    45  28  53 NE15G26   30.10R
JUNEAU         MOCLDY    47  32  56 NE9       30.11S
$$

LSZ147-162-250600-
LAKE SUPERIOR

STATION/POSITION TIME  TEMP    WIND        PRES    WAVE
                       AIR SEA DIR/SP/G            HT/PER
                 (UTC) (F)     (DEG/KT/KT) (MB)    (FT/S)
DEVILS ISLAND    0400   37      30/ 10/ 11 1025.9R
SAXON HARBOR     0440   34      CALM  /  2 1024.4R
$$

LMZ867-665-643>646-250600-
LAKE MICHIGAN

STATION/POSITION TIME  TEMP    WIND        PRES    WAVE
                       AIR SEA DIR/SP/G            HT/PER
                 (UTC) (F)     (DEG/KT/KT) (MB)    (FT/S)
NORTHPORT PIER   0440   37                 1020.3F
KEWAUNEE LAKESHO 0430   45     360/  8/ 12 1019.6R
SHEBOYGAN LAKESH 0400   42      10/ 26/ 28 1019.5R
PORT WASHINGTON  0440   47      20/ 18/ 29 1020.3R
MILWAUKEE LAKESH 0420   42     360/ 22/ 26   N/A
KENOSHA   LAKESH 0400   45                 1017.3
$$

TC  - TEMPERATURE IN CELSIUS
VSB - VISIBILITY IN STATUTE MILES
WCI - WIND CHILL INDEX
HX  - HEAT INDEX





USA.gov is the U.S. government's official web portal to all federal, state and local government web resources and services.